www.pogodaiklimat.ru

Погода и климат >> Архив погоды >> Сербия >> Крагуевац


ПОГОДА в Крагуеваце

  • Прогноз погоды в Крагуеваце
  • Монитор погоды в Крагуеваце

АРХИВ ПОГОДЫ в Крагуеваце

Время (UTC), дата Ветер
(напр.,м/с)
 
Видим.   Явления Облачность Т
(С)
Тd
(С)
f
(%)
Тe
(С)
Тes
(С)
Комфортность P
(гПа)
Po
(гПа)
Тmin
(С)
Tmax
(С)
R
(мм)
R24
(мм)
S
(см)
01 13.08 С 1 20 км ясно +20.9 +17.1 79 +26 +26 душно 1012.0 990.7
02 13.08 В 1 20 км ясно +20.8 +17.3 80 +26 +26 душно 1011.9 990.6
03 13.08 В 1 20 км ясно +22.4 +16.8 71 +27 +27 душно 1011.6 990.4
04 13.08 В 2 20 км ясно +22.0 +15.1 65 +26 +26 душно 1011.4 990.2
05 13.08 ЮВ 3 20 км ясно +25.3 +16.3 57 +29 +30 душно 1012.1 991.2
06 13.08 ЮВ 2 30 км ясно +27.9 +16.1 49 +31 +35 душно 1011.9 991.2 +19.7
07 13.08 Ю 1 30 км ясно +28.5 +16.1 47 +32 +40 душно 1011.8 991.2
08 13.08 ЮВ 2 30 км ясно +30.8 +17.2 44 +35 +46 очень
душно
1011.9 991.3
09 13.08 ЮВ 3 30 км ясно +31.6 +16.7 41 +35 +47 очень
душно
1011.6 991.2
10 13.08 ЮВ 3 30 км ясно +33.9 +17.2 37 +37 +51 опасность
солнечного
удара
1011.0 990.8
11 13.08 ЮВ 2 30 км ясно +34.6 +17.0 35 +38 +54 опасность
солнечного
удара
1010.8 990.5
12 13.08 В 2 30 км ясно +35.1 +17.6 36 +39 +54 опасность
солнечного
удара
1010.3 990.1
13 13.08 В 2 30 км ясно +35.8 +17.6 34 +39 +51 опасность
солнечного
удара
1009.9 989.7
14 13.08 С 2 30 км ясно +35.5 +17.8 35 +39 +47 очень
душно
1009.6 989.4
15 13.08 В 2 30 км 3/0
[Ac lent]
+35.9 +17.8 34 +39 +43 очень
душно
1009.5 989.3
16 13.08 СВ 1 30 км 4/0
[Ac trans Cs]
+35.2 +18.5 37 +39 +41 очень
душно
1009.3 989.1
17 13.08 СВ 1 30 км 4/0
[Ac trans Cs]
+31.7 +18.7 46 +37 +37 очень
душно
1009.3 988.9
18 13.08 С 2 30 км 3/0
[Cs]
+28.7 +20.0 59 +35 +35 очень
душно
1010.1 989.4 +36.3
19 13.08 С 1 20 км 4/0
[Cs]
+27.2 +21.1 69 +34 +34 очень
душно
1011.0 990.2
20 13.08 В 1 20 км 4/0
[Cs]
+27.1 +20.7 68 +34 +34 очень
душно
1011.2 990.4
21 13.08 Ю 1 20 км 5/0
[Cs]
+25.6 +22.0 81 +33 +33 очень
душно
1011.4 990.6
22 13.08 СВ 1 20 км 6/0
[Cs]
+24.1 +20.5 80 +30 +30 очень
душно
1010.8 989.8
23 13.08 СВ 1 20 км 6/0
[Cs]
+23.7 +19.6 78 +29 +29 душно 1010.8 989.8
00 14.08 СВ 1 20 км 3/0
[Ci fib]
+23.0 +19.2 79 +29 +29 очень
душно
1010.8 989.7
01 14.08 СВ 1 20 км ясно +22.2 +20.3 89 +28 +28 душно 1010.9 989.7
03 14.08 СЗ 1 20 км ясно +18.6 +17.2 92 +21 +21 комфорт 1011.1 989.7
06 14.08 С 5 20 км 4/4 1000 м
[Cu Sc]
+22.0 +17.2 74 +26 +28 душно 1012.2 991.0 +18.2
07 14.08 СЗ 6 20 км 9/9 1000 м
[Cu Sc]
+21.4 +17.2 77 +25 +26 комфорт 1013.1 991.8
08 14.08 СЗ 6 20 км 10/10 1000 м
[Cu Sc]
+20.8 +18.4 86 +25 +25 комфорт 1014.2 992.9
09 14.08 СЗ 6 20 км 10/10 1000 м
[Cu Sc]
+19.5 +17.5 88 +21 +21 комфорт 1015.2 993.8
10 14.08 СЗ 3 20 км 10/10 1000 м
[Cu Sc]
+19.9 +17.9 88 +23 +23 комфорт 1015.5 994.1
11 14.08 СЗ 2 20 км 10/10 1000 м
[Sc]
+20.0 +17.0 83 +23 +23 комфорт 1015.2 993.8
12 14.08 З 2 17 км 10/10 100 м
[Sc]
+19.9 +17.0 83 +23 +23 комфорт 1014.7 993.3
13 14.08 З 3 15 км 10/10 1000 м
[Sc]
+20.2 +16.9 81 +23 +23 комфорт 1014.4 993.0
14 14.08 СЗ 3 15 км 10/10 1000 м
[Sc]
+20.4 +16.9 80 +24 +24 комфорт 1014.3 992.9
15 14.08 СЗ 4 15 км 10/10 1000 м
[Sc]
+20.2 +16.9 81 +23 +23 комфорт 1014.3 992.9
16 14.08 З 2 10 км слаб. дождь 10/10 1000 м
[Sc]
+19.3 +17.5 89 +22 +22 комфорт 1015.6 994.1
17 14.08 СЗ 2 4000 м слаб. дождь 10/10 600 м
[Sc]
+18.0 +16.4 90 +19 +19 1015.7 994.2
18 14.08 СВ 1 10 км в посл. час дождь 9/9 1000 м
[Sc]
+17.1 +16.0 93 +18 +18 1016.0 994.3 +22.0 3
19 14.08 С 2 10 км 10/10 1000 м
[Sc]
+17.2 +15.6 90 +18 +18 1016.6 995.0
20 14.08 СЗ 1 10 км 10/10 1000 м
[Sc]
+16.9 +15.3 90 +18 +18 1016.6 995.0
21 14.08 З 1 10 км 10/10 1000 м
[Sc]
+17.0 +15.4 90 +18 +18 1016.6 995.0
22 14.08 З 1 10 км 10/10 1000 м
[Sc]
+16.9 +15.4 91 +18 +18 1016.9 995.2
23 14.08 штиль 0 10 км 10/10 1000 м
[Sc]
+16.9 +15.3 90 +17 +17 1016.6 995.0
00 15.08 З 1 10 км 10/10 1000 м
[Sc]
+16.6 +15.0 90 +17 +17 1016.7 995.0
01 15.08 ЮЗ 2 10 км 10/10 1000 м
[Sc]
+16.9 +15.1 89 +17 +17 1016.5 994.8
02 15.08 Ю 1 10 км 10/10 1000 м
[Sc]
+16.8 +15.0 89 +18 +18 1016.4 994.7
03 15.08 С 1 10 км 10/10 1000 м
[Sc]
+17.0 +15.1 89 +18 +18 1016.5 994.8
04 15.08 З 1 10 км 10/10 1000 м
[Sc]
+17.1 +15.0 87 +18 +18 1016.2 994.6
05 15.08 З 2 10 км 10/10 1000 м
[Sc]
+17.0 +15.1 89 +17 +17 1016.2 994.6
06 15.08 СЗ 3 2000 м слаб. дождь 10/10 600 м
[Sc]
+16.5 +15.5 94 +16 +16 1016.4 994.7 +16.5 0.4
07 15.08 С 2 10 км в посл. час дождь 9/9 1000 м
[Sc]
+16.5 +14.9 90 +17 +17 1016.9 995.1
08 15.08 СЗ 5 20 км 8/8 1000 м
[Cu Sc]
+17.8 +13.2 74 +17 +19 1016.7 995.1
09 15.08 С 5 20 км 6/6 1000 м
[Cu Sc]
+19.0 +11.7 63 +20 +23 1016.2 995.0
10 15.08 З 4 20 км 6/6 1000 м
[Cu Sc]
+21.2 +13.1 60 +24 +28 комфорт 1016.1 994.7
11 15.08 СЗ 3 20 км 6/6 1000 м
[Cu Sc]
+21.2 +13.0 59 +23 +29 комфорт 1015.8 994.4
12 15.08 С 3 20 км {дождь} 5/5 1000 м
[Cu Sc]
+22.5 +12.3 52 +25 +31 комфорт 1015.4 994.1 0.1
13 15.08 СЗ 3 20 км 4/4 1000 м
[Cu med, cong]
+23.8 +12.7 50 +26 +32 жарко 1014.7 993.5
14 15.08 С 4 20 км 4/4 1000 м
[Cu med, cong]
+24.0 +12.3 48 +26 +29 жарко 1014.6 993.4
15 15.08 СЗ 4 20 км 4/3 1000 м
[Cu med, cong Ac trans]
+24.3 +11.7 45 +26 +28 жарко 1014.5 993.3
16 15.08 СЗ 4 20 км 4/3 1000 м
[Cu hum Ac trans]
+23.4 +9.5 41 +25 +26 комфорт 1014.1 992.9
17 15.08 СЗ 2 30 км 1/1 1000 м
[Cu hum]
+22.4 +10.6 47 +24 +24 комфорт 1014.4 993.1
18 15.08 З 2 30 км 3/0 1000 м
[Ac trans]
+20.2 +12.3 60 +23 +23 комфорт 1015.3 993.8 +24.8 0.1
19 15.08 З 1 20 км 3/0
[Ac trans]
+17.0 +12.0 72 +18 +18 1016.1 994.4
20 15.08 Ю 2 20 км ясно +16.4 +13.1 81 +17 +17 1016.5 994.7
21 15.08 Ю 2 20 км ясно +15.0 +12.7 86 +15 +15 1016.8 994.9
22 15.08 Ю 1 20 км ясно +14.4 +12.4 88 +15 +15 1016.8 994.9
23 15.08 Ю 1 20 км ясно +13.4 +11.7 89 +14 +14 1016.7 994.7
00 16.08 Ю 2 20 км ясно +13.0 +11.2 89 +12 +12 1016.7 994.6
01 16.08 Ю 1 20 км ясно +12.0 +10.6 91 +12 +12 1016.8 994.6
02 16.08 Ю 1 20 км ясно +12.0 +10.6 91 +12 +12 1016.8 994.6
03 16.08 Ю 1 20 км ясно +9.8 +8.3 90 +9 +9 1017.2 995.0
04 16.08 ЮЗ 1 30 км 1/0
[Ac trans]
+10.0 +8.8 92 +9 +9 1017.2 995.0
05 16.08 штиль 0 30 км 1/0
[Ac trans]
+10.5 +9.0 90 +10 +11 1018.0 995.7
06 16.08 Ю 2 30 км 3/0
[Ac trans]
+16.0 +11.2 73 +16 +19 1017.3 995.6 +9.5
07 16.08 ЮЗ 2 30 км 1/0
[Ac trans]
+19.1 +12.6 66 +21 +27 комфорт 1017.3 995.7
08 16.08 СВ 1 30 км 4/3 1000 м
[Cu hum Ac trans]
+21.5 +13.0 58 +24 +32 комфорт 1017.2 995.8
09 16.08 С 4 30 км 5/4 1000 м
[Cu med, cong Ac trans]
+23.0 +12.4 51 +26 +31 жарко 1016.9 995.6
10 16.08 С 3 30 км 5/4 1000 м
[Cu med, cong Ac trans]
+23.5 +12.0 48 +25 +32 комфорт 1016.6 995.5
11 16.08 СЗ 4 30 км 6/6 1000 м
[Cu Sc]
+23.5 +12.0 48 +25 +29 комфорт 1016.6 995.5
12 16.08 С 4 30 км 6/6 1000 м
[Cu Sc]
+24.2 +12.7 49 +26 +30 жарко 1016.3 995.1
13 16.08 С 4 30 км 5/5 1000 м
[Cu Sc]
+23.9 +11.1 45 +25 +29 комфорт 1016.2 995.0
14 16.08 СЗ 3 30 км 6/6 1000 м
[Cu Sc]
+23.8 +11.2 45 +25 +28 комфорт 1016.0 994.8
15 16.08 СЗ 4 30 км 6/6 1000 м
[Cu Sc]
+25.5 +12.8 45 +27 +28 жарко 1015.7 994.6
16 16.08 СЗ 3 20 км 6/6 1000 м
[Cu Sc]
+24.0 +11.5 45 +25 +26 комфорт 1015.8 994.6
17 16.08 СЗ 2 20 км 5/4 1000 м
[Cu Sc Ac trans]
+23.0 +11.7 49 +25 +26 комфорт 1015.9 994.6
18 16.08 СЗ 1 20 км 5/3 1000 м
[Sc Ac trans]
+20.5 +12.1 59 +24 +24 комфорт 1016.5 995.0 +25.7
19 16.08 Ю 2 20 км 5/3 1000 м
[Sc Ac trans]
+19.0 +12.3 65 +21 +21 комфорт 1017.0 995.4
20 16.08 С 1 20 км 6/3 1000 м
[Sc Ac trans]
+17.0 +12.0 72 +18 +18 1017.8 996.1
21 16.08 Ю 1 20 км 5/3 1000 м
[Sc Ac trans]
+16.8 +11.7 72 +18 +18 1018.0 996.3
22 16.08 Ю 2 20 км 4/3 1000 м
[Sc Ac trans]
+15.9 +11.2 74 +16 +16 1018.1 996.3
23 16.08 Ю 2 20 км 6/3 1000 м
[Sc Ac trans]
+15.9 +12.3 79 +16 +16 1018.3 996.5
00 17.08 Ю 2 20 км 8/4 1000 м
[Sc Ac trans]
+16.2 +12.0 76 +16 +16 1018.0 996.2
01 17.08 Ю 2 20 км 5/3 1000 м
[Sc Ac trans]
+15.0 +12.0 82 +15 +15 1017.8 995.9
02 17.08 Ю 2 20 км 5/3 1000 м
[Sc Ac trans]
+14.8 +12.1 84 +14 +14 1017.8 995.9
03 17.08 Ю 1 20 км 4/3 1000 м
[Sc Ac trans]
+14.2 +12.8 91 +14 +14 1018.1 996.1
04 17.08 ЮЗ 1 20 км 3/0
[Ac trans]
+12.9 +11.5 91 +13 +13 1018.2 996.2
05 17.08 З 1 20 км 5/0
[Ac trans]
+13.3 +11.5 89 +13 +14 1019.0 996.9
06 17.08 Ю 1 20 км 6/3 1000 м
[Sc Ac trans]
+15.5 +13.3 87 +16 +18 1019.1 997.2 +12.9
07 17.08 ЮЗ 1 20 км 4/1 1000 м
[Sc Ac trans]
+19.5 +14.7 74 +22 +28 комфорт 1018.9 997.3
08 17.08 С 2 25 км 4/4 1000 м
[Cu med, cong]
+22.3 +16.6 70 +27 +33 душно 1018.6 997.2
09 17.08 С 3 30 км 5/5 1000 м
[Cu Sc]
+23.7 +16.8 65 +27 +33 жарко 1018.5 997.3
10 17.08 СВ 2 30 км 5/5 1000 м
[Cu med, cong]
+24.3 +16.2 61 +28 +36 душно 1018.3 997.0
11 17.08 С 3 30 км 4/4 1000 м
[Cu med, cong]
+25.3 +15.6 55 +28 +36 жарко 1017.8 996.7
12 17.08 С 4 30 км 4/4 1000 м
[Cu med, cong]
+26.7 +15.1 49 +29 +35 жарко 1017.2 996.2
13 17.08 СЗ 3 30 км 6/4 1000 м
[Cu Sc Cs]
+26.9 +14.0 45 +29 +34 жарко 1016.6 995.6
14 17.08 С 3 30 км 6/4 1000 м
[Cu Sc Cs]
+26.4 +15.1 50 +29 +33 жарко 1016.4 995.4
15 17.08 СЗ 2 30 км 6/3 1000 м
[Cu Sc Ac trans Cs]
+26.7 +15.1 49 +29 +32 жарко 1016.4 995.4
16 17.08 СВ 1 30 км 4/1 1000 м
[Cu med, cong Ac trans Ci fib]
+26.7 +15.7 51 +30 +31 душно 1016.1 995.1
17 17.08 СВ 1 30 км 4/1 1000 м
[Cu hum Ac trans Ci fib]
+26.0 +14.8 50 +29 +29 душно 1016.2 995.2
18 17.08 СВ 1 30 км 3/0
[Ac trans Ci fib]
+22.6 +13.9 58 +26 +26 жарко 1016.7 995.4 +27.7
19 17.08 ЮЗ 1 30 км ясно +19.4 +13.9 70 +22 +22 комфорт 1017.4 995.8
20 17.08 Ю 1 30 км 1/0
[Ac trans]
+17.8 +14.0 78 +19 +19 1017.7 996.0
21 17.08 Ю 1 30 км ясно +17.4 +14.0 80 +18 +18 1017.9 996.2
22 17.08 Ю 1 30 км ясно +16.4 +13.4 82 +17 +17 1017.8 996.0
23 17.08 Ю 2 30 км ясно +15.9 +13.4 85 +16 +16 1018.1 996.2
00 18.08 Ю 1 30 км ясно +14.0 +11.9 87 +14 +14 1018.3 996.3
01 18.08 Ю 1 30 км ясно +14.1 +11.8 86 +14 +14 1018.3 996.3
02 18.08 штиль 0 30 км ясно +12.6 +10.8 89 +12 +12 1018.1 996.0
03 18.08 штиль 0 30 км ясно +11.9 +10.5 91 +11 +11 1018.1 995.9
04 18.08 штиль 0 30 км ясно +11.7 +10.4 92 +11 +11 1018.1 995.9
05 18.08 Ю 2 30 км ясно +15.2 +13.9 92 +15 +16 1018.1 996.2
06 18.08 Ю 1 30 км 1/0
[Ci fib]
+18.4 +14.9 80 +20 +24 1018.2 996.5 +11.5
07 18.08 ЮЗ 1 30 км 3/0
[Ci fib]
+21.0 +14.0 64 +25 +33 комфорт 1017.6 996.2
08 18.08 ЮЗ 1 30 км 3/0
[Ci fib]
+24.0 +15.0 57 +27 +38 жарко 1017.5 996.3
09 18.08 ЮЗ 1 30 км 4/1 1000 м
[Cu hum Ci sp]
+25.9 +15.8 54 +29 +43 душно 1017.1 996.1
10 18.08 Ю 1 30 км 4/1 1000 м
[Cu hum Ci sp]
+27.0 +15.0 48 +30 +45 душно 1016.6 995.7
11 18.08 Ю 2 30 км 4/1 1000 м
[Cu hum Ci sp]
+28.9 +13.8 40 +31 +44 жарко 1016.2 995.4
12 18.08 ЮЗ 2 30 км 1/0
[Ci fib]
+29.5 +12.1 34 +30 +44 жарко 1016.1 995.3
13 18.08 С 1 30 км 1/1 1000 м
[Cu hum]
+30.1 +11.7 32 +31 +43 жарко 1015.8 995.0
14 18.08 СЗ 2 30 км ясно +30.5 +11.4 31 +31 +39 жарко 1015.7 994.9
15 18.08 В 1 30 км ясно +30.6 +11.4 31 +31 +36 жарко 1015.7 994.6
16 18.08 СВ 1 30 км ясно +30.3 +11.5 31 +31 +32 жарко 1015.2 994.4
17 18.08 СВ 1 30 км ясно +28.4 +11.8 36 +29 +29 жарко 1015.8 995.0
18 18.08 штиль 0 30 км ясно +24.5 +14.8 55 +27 +27 жарко 1016.2 995.1 +31.0
19 18.08 Ю 2 30 км ясно +22.4 +13.9 59 +26 +26 жарко 1016.8 995.5
20 18.08 ЮЗ 1 30 км ясно +20.5 +13.7 65 +24 +24 комфорт 1017.3 995.8
21 18.08 ЮЗ 1 30 км ясно +18.6 +13.7 73 +20 +20 1017.6 996.0
22 18.08 Ю 2 30 км ясно +18.3 +13.9 76 +19 +19 1017.5 995.9
23 18.08 Ю 2 30 км ясно +17.7 +13.6 77 +18 +18 1017.6 995.9
00 19.08 штиль 0 30 км ясно +15.0 +12.1 83 +15 +15 1017.7 995.8
01 19.08 Ю 2 30 км ясно +15.4 +12.3 82 +15 +15 1017.5 995.6
02 19.08 штиль 0 30 км ясно +14.4 +11.8 84 +14 +14 1017.8 995.8
03 19.08 Ю 1 30 км ясно +13.3 +10.8 85 +13 +13 1017.7 995.6
04 19.08 штиль 0 30 км 1/0
[Ci fib]
+13.2 +10.9 86 +13 +13 1017.9 995.8
05 19.08 штиль 0 30 км 1/0
[Ci fib]
+13.5 +10.9 84 +13 +14 1017.7 995.7
06 19.08 Ю 2 30 км 1/0
[Ci fib]
+19.7 +12.8 64 +22 +25 комфорт 1017.3 995.8 +12.5
07 19.08 Ю 1 30 км ясно +22.9 +13.0 54 +26 +34 жарко 1017.2 995.9
08 19.08 Ю 1 30 км ясно +26.3 +13.8 46 +28 +41 жарко 1017.0 995.9
09 19.08 ЮВ 1 30 км ясно +28.8 +14.3 41 +31 +47 жарко 1016.8 995.9
10 19.08 В 1 30 км ясно +30.7 +13.2 34 +32 +50 жарко 1016.6 995.9
11 19.08 ЮВ 2 30 км ясно +32.0 +12.8 31 +33 +48 жарко 1016.4 995.7
12 19.08 ЮВ 2 30 км ясно +33.1 +12.4 28 +33 +48 жарко 1016.2 995.6
13 19.08 В 2 30 км ясно +33.7 +12.7 28 +34 +45 очень
жарко
1015.8 995.3
14 19.08 СВ 1 30 км ясно +34.0 +12.3 27 +34 +43 очень
жарко
1015.8 995.3
15 19.08 ЮВ 2 30 км 1/0
[Ci fib]
+34.2 +12.4 27 +34 +38 очень
жарко
1015.8 995.3
16 19.08 Ю 2 30 км 1/0
[Ci fib]
+33.5 +13.1 29 +34 +36 очень
жарко
1015.6 995.1
17 19.08 штиль 0 30 км 1/0
[Ci fib]
+31.0 +17.2 44 +35 +35 очень
душно
1015.6 994.9
18 19.08 Ю 1 30 км 1/0
[Ci fib]
+28.4 +18.3 54 +33 +33 очень
душно
1015.8 995.0 +34.3
19 19.08 З 1 30 км ясно +23.6 +16.0 62 +27 +27 жарко 1017.0 995.9
20 19.08 ЮЗ 1 20 км ясно +22.0 +16.2 70 +26 +26 душно 1017.4 996.1
21 19.08 ЮЗ 1 20 км ясно +20.4 +17.1 81 +25 +25 комфорт 1017.9 996.5
22 19.08 ЮЗ 1 20 км ясно +19.8 +15.0 74 +23 +23 комфорт 1018.1 996.6
23 19.08 штиль 0 20 км ясно +17.4 +14.4 83 +17 +17 1018.4 996.6
00 20.08 штиль 0 20 км ясно +16.2 +14.3 89 +16 +16 1018.5 996.7

 

Местоположение метеостанции Крагуевац (Сербия): широта 44.03 долгота 20.93 высота над уровнем моря 185 м.

В архиве по умолчанию представлена погода в Крагуеваце за последнюю неделю. Архивные данные за месяц целиком и за предыдущие месяцы, начиная с января 2011 года, Вы можете получить, выбрав интересующий диапазон дат из раскрывающегося списка и нажав кнопку "Ввод!".


*Определитесь, кто Вы:
робот инопланетянин человек

Внимание! Время в таблицах - всемирное. Для получения местного времени необходимо прибавить поправку, которая равна 1 ч.

Смотрите также архив погоды в соседних городах и на ближайших метеорологических станциях:

Погода в Чуприи (Сербия) (38 км)
Погода в Смедеревска-Паланке (Сербия) (38 км)
Погода в Кралево (Сербия) (41 км)
Погода в Крушеваце (Сербия) (61 км)
Погода в Пожега Ужичка (Сербия) (75 км)
Погода на Црни Врх (Сербия) (82 км)
Погода на Копаонике (Сербия) (84 км)
Погода в Валево (Сербия) (87 км)
Погода в Велико-Градиште (Сербия) (93 км)
Погода в Белграде (Сербия) (93 км)

Пояснения к столбцам:

Ветер - указаны скорость ветра в м/с - средняя за 10 мин, порывы в срок и между сроками (в фигурных скобках) и направление, откуда дует ветер: С - северный, СВ - северо-восточный, В - восточный, ЮВ - юго-восточный, Ю - южный, ЮЗ - юго-западный, З - западный, СЗ - северо-западный.
Видимость - горизонтальная дальность видимости в метрах или километрах. При видимости от 1 до 10 км при отсутствии осадков обычно наблюдается дымка, при ухудшении видимости до 1 км и менее - туман. В сухую погоду видимость может ухудшаться дымом, пылью или мглою.
Явления - указаны атмосферные явления, наблюдавшиеся в срок или в последний час перед сроком; фигурными скобками обозначены явления, наблюдавшиеся между сроками (за 1-3 часа до срока); квадратными скобками обозначены град или гололедные отложения с указанием их диаметра в мм.
Облачность - указаны через наклонную черту общая и нижняя облачность в баллах и высота нижней границы облаков в метрах; квадратными скобками обозначены формы облаков: Ci - перистые, Cs - перисто-слоистые, Cc - перисто-кучевые, Ac - высококучевые, As - высокослоистые, Sc - слоисто-кучевые, Ns - слоисто-дождевые, Cu - кучевые, Cb - кучево-дождевые. Подробнее классификацию облаков см. в Атласе облаков (PDF).
T - Температура воздуха - температура, измеренная на высоте 2 м над землей.
Td - Температура точки росы - температура, при понижении до которой содержащийся в воздухе водяной пар достигнет насыщения.
f - Относительная влажность воздуха - влажноcть воздуха, измеренная на высоте 2 м над землей.
Te - Эффективная температура - температура, которую ощущает одетый по сезону человек в тени. Характеристика душности погоды. При расчете учитывается влияние влажности воздуха и скорости ветра на теплоощущения человека.
Tes - Эффективная температура на солнце - температура, которую ощущает человек, с поправкой на солнечный нагрев. Характеристика знойности погоды. Зависит от высоты солнца над горизонтом, облачности и скорости ветра. Ночью, в пасмурную погоду, а также при ветре 12 м/с и более поправка равна нулю.
P - Атмосферное давление - приведенное к уровню моря атмосферное давление.
Po - Атмосферное давление - измеренное на уровне метеостанции атмосферное давление.
Tmin - Минимальная температура - минимум температуры воздуха на высоте 2 м над землей.
Tmax - Максимальная температура - максимум температуры воздуха на высоте 2 м над землей.
R - Количество осадков - Количество выпавших осадков за период времени, мм. При наведении курсора мыши на число - период времени, за который выпало указанное количество осадков.
R24 - Количество осадков - Количество выпавших осадков за 24 часа, мм.
S - Снежный покров - Высота снежного покрова, см. При наведении курсора мыши на число - состояние снежного покрова и степень покрытия местности в баллах.